TimeCST,TemperatureF,Dew PointF,Humidity,Sea Level PressureIn,VisibilityMPH,Wind Direction,Wind SpeedMPH,Gust SpeedMPH,PrecipitationIn,Events,Conditions,WindDirDegrees,DateUTC
12:53 AM,43.0,33.1,68,29.93,10.0,North,6.9,-,N/A,,Clear,10,2012-11-26 06:53:00
1:53 AM,41.0,32.0,70,29.92,10.0,North,6.9,-,N/A,,Clear,10,2012-11-26 07:53:00
2:53 AM,39.9,32.0,73,29.94,10.0,North,6.9,-,N/A,,Clear,10,2012-11-26 08:53:00
3:53 AM,39.9,32.0,73,29.94,10.0,North,6.9,-,N/A,,Clear,360,2012-11-26 09:53:00
4:53 AM,39.0,32.0,76,29.95,10.0,North,10.4,-,N/A,,Clear,10,2012-11-26 10:53:00
5:53 AM,37.9,32.0,79,29.98,10.0,North,9.2,-,N/A,,Clear,360,2012-11-26 11:53:00
6:53 AM,37.0,32.0,82,30.01,10.0,North,4.6,-,N/A,,Partly Cloudy,350,2012-11-26 12:53:00
7:53 AM,39.0,33.1,79,30.04,10.0,North,11.5,-,N/A,,Overcast,10,2012-11-26 13:53:00
8:53 AM,39.0,32.0,76,30.08,10.0,North,16.1,-,N/A,,Overcast,10,2012-11-26 14:53:00
9:53 AM,41.0,32.0,70,30.10,10.0,NNE,17.3,-,N/A,,Overcast,20,2012-11-26 15:53:00
10:53 AM,42.1,30.9,65,30.13,10.0,NNE,18.4,-,N/A,,Overcast,20,2012-11-26 16:53:00
11:53 AM,45.0,32.0,60,30.14,10.0,NNE,21.9,27.6,N/A,,Mostly Cloudy,20,2012-11-26 17:53:00
12:53 PM,48.0,32.0,54,30.14,10.0,NNE,19.6,25.3,N/A,,Overcast,20,2012-11-26 18:53:00
1:53 PM,46.9,30.0,52,30.16,10.0,NNE,21.9,29.9,N/A,,Overcast,20,2012-11-26 19:53:00
2:53 PM,46.9,28.0,48,30.19,10.0,NNE,23.0,33.4,N/A,,Overcast,20,2012-11-26 20:53:00
3:53 PM,46.9,23.0,39,30.22,10.0,NNE,26.5,36.8,N/A,,Mostly Cloudy,20,2012-11-26 21:53:00
4:53 PM,45.0,24.1,44,30.27,10.0,NNE,15.0,24.2,N/A,,Clear,20,2012-11-26 22:53:00
5:53 PM,43.0,25.0,49,30.30,10.0,North,16.1,26.5,N/A,,Clear,10,2012-11-26 23:53:00
6:53 PM,41.0,25.0,53,30.35,10.0,NNE,15.0,20.7,N/A,,Clear,20,2012-11-27 00:53:00
7:53 PM,39.0,25.0,57,30.38,10.0,NNE,10.4,-,N/A,,Clear,20,2012-11-27 01:53:00
8:53 PM,37.0,26.1,65,30.42,10.0,Variable,6.9,-,N/A,,Clear,0,2012-11-27 02:53:00
9:53 PM,35.1,28.0,76,30.44,10.0,North,12.7,-,N/A,,Clear,10,2012-11-27 03:53:00
10:53 PM,32.0,27.0,82,30.46,10.0,North,6.9,-,N/A,,Clear,360,2012-11-27 04:53:00
11:53 PM,30.9,27.0,85,30.45,10.0,North,5.8,-,N/A,,Clear,350,2012-11-27 05:53:00